Weather History for KLYV - January, 2014

Change the Weather History Date:

Wednesday, January 1, 2014

  Actual Average (KFSD) Record (KFSD)
Temperature  
Mean Temperature 0 °F 17 °F  
Max Temperature 3 °F 26 °F 55 °F (1998)
Min Temperature -5 °F 7 °F -32 °F (1974)
Degree Days  
Heating Degree Days 66 49  
Month to date heating degree days 49  
Since 1 July heating degree days 3182  
Cooling Degree Days 0 0  
Month to date cooling degree days 0  
Year to date cooling degree days 0  
Moisture  
Dew Point -8 °F    
Average Humidity 69    
Maximum Humidity 84    
Minimum Humidity 56    
Precipitation  
Precipitation 0.00 in 0.02 in 1.59 in (1960)
Month to date precipitation 0.02  
Year to date precipitation 0.02  
Snow  
Snow 0.00 in 0.20 in 11.30 in (1960)
Month to date snowfall 0.2  
Since 1 July snowfall 17.1  
Snow Depth -    
Sea Level Pressure  
Sea Level Pressure 30.33 in    
Wind  
Wind Speed 10 mph (NE)    
Max Wind Speed 16 mph    
Max Gust Speed 22 mph    
Visibility 9 miles    
Events Snow    
T = Trace of Precipitation, MM = Missing Value Source: NWS Daily Summary

Daily Weather History Graph

Daily Weather History Graph

Search for Another Location

Airport or City:

Trip Planner

Search our weather history database for the weather conditions in past years. The results will help you decide how hot, cold, wet, or windy it might be!

Date:

Astronomy

Jan. 01, 2014 Rise Set
Actual Time 7:58 AM CST 4:58 PM CST
Civil Twilight 7:25 AM CST 5:31 PM CST
Nautical Twilight 6:49 AM CST 6:07 PM CST
Astronomical Twilight 6:14 AM CST 6:42 PM CST
Moon 7:47 AM CST (1/1) 5:47 PM CST (1/1)
Length of Visible Light 10h 05m
Length of Day
9h 00m
New Moon, 0% of the Moon is Illuminated
Jan 1
New Moon
Jan 7
First Quarter
Jan 15
Full
Jan 23
Last Quarter
Jan 30
New

Hourly Weather History & Observations

Time (CST) Temp. Windchill Dew Point Humidity Pressure Visibility Wind Dir Wind Speed Gust Speed Precip Events Conditions
12:14 AM -2.2 °F -22.2 °F -9.4 °F 71% 30.26 in 5.0 mi NE 15.0 mph 19.6 mph N/A Snow Light Snow
12:34 AM -2.2 °F -22.9 °F -9.4 °F 71% 30.24 in 3.0 mi ENE 16.1 mph 21.9 mph N/A   Haze
12:54 AM -2.2 °F -21.5 °F -7.6 °F 78% 30.25 in 2.5 mi NE 13.8 mph - N/A Snow Light Snow
1:14 AM -2.2 °F -18.0 °F -7.6 °F 78% 30.26 in 3.0 mi NE 9.2 mph - N/A Snow Light Snow
1:34 AM -2.2 °F -18.0 °F -7.6 °F 78% 30.27 in 2.5 mi ENE 9.2 mph - N/A Snow Light Snow
1:55 AM -2.2 °F -18.9 °F -7.6 °F 78% 30.28 in 2.5 mi ENE 10.4 mph - N/A Snow Light Snow
2:14 AM -2.2 °F -18.9 °F -9.4 °F 71% 30.28 in 2.0 mi ENE 10.4 mph - N/A Snow Light Snow
2:34 AM -4.0 °F -20.2 °F -9.4 °F 78% 30.29 in 2.0 mi ENE 9.2 mph - N/A Snow Light Snow
2:55 AM -4.0 °F -21.2 °F -9.4 °F 78% 30.28 in 3.0 mi ENE 10.4 mph - N/A Snow Light Snow
3:14 AM -2.2 °F -18.9 °F -9.4 °F 71% 30.28 in 5.0 mi ENE 10.4 mph - N/A   Haze
3:34 AM -2.2 °F -18.0 °F -7.6 °F 78% 30.27 in 7.0 mi ENE 9.2 mph - N/A   Overcast
3:55 AM -2.2 °F -18.9 °F -7.6 °F 78% 30.26 in 10.0 mi ENE 10.4 mph - N/A   Overcast
4:14 AM -2.2 °F -19.9 °F -9.4 °F 71% 30.26 in 10.0 mi East 11.5 mph - N/A   Overcast
4:34 AM -2.2 °F -18.9 °F -7.6 °F 78% 30.26 in 10.0 mi ENE 10.4 mph - N/A   Overcast
4:55 AM -2.2 °F -19.9 °F -7.6 °F 78% 30.26 in 10.0 mi ENE 11.5 mph - N/A   Overcast
5:14 AM -2.2 °F -19.9 °F -7.6 °F 78% 30.26 in 10.0 mi ENE 11.5 mph - N/A   Overcast
5:34 AM -2.2 °F -21.5 °F -9.4 °F 71% 30.26 in 10.0 mi ENE 13.8 mph - N/A   Overcast
5:55 AM -2.2 °F -19.9 °F -7.6 °F 78% 30.26 in 10.0 mi ENE 11.5 mph - N/A   Overcast
6:14 AM -2.2 °F -18.9 °F -9.4 °F 71% 30.27 in 10.0 mi ENE 10.4 mph - N/A   Overcast
6:34 AM -2.2 °F -18.0 °F -9.4 °F 71% 30.28 in 10.0 mi NE 9.2 mph - N/A   Overcast
6:54 AM -0.4 °F -15.7 °F -9.4 °F 66% 30.29 in 10.0 mi NE 9.2 mph - N/A   Overcast
7:14 AM -0.4 °F -18.4 °F -9.4 °F 66% 30.29 in 10.0 mi NE 12.7 mph - N/A   Overcast
7:35 AM -0.4 °F -17.6 °F -9.4 °F 66% 30.31 in 10.0 mi NNE 11.5 mph - N/A   Overcast
7:54 AM -0.4 °F -15.7 °F -9.4 °F 66% 30.32 in 10.0 mi NE 9.2 mph - N/A   Overcast
8:14 AM -0.4 °F -17.6 °F -9.4 °F 66% 30.33 in 10.0 mi NE 11.5 mph - N/A   Overcast
8:34 AM -0.4 °F -15.7 °F -9.4 °F 66% 30.33 in 10.0 mi NE 9.2 mph - N/A   Overcast
8:54 AM -0.4 °F -15.7 °F -7.6 °F 72% 30.34 in 10.0 mi NE 9.2 mph - N/A   Overcast
9:14 AM -0.4 °F -19.2 °F -7.6 °F 72% 30.34 in 10.0 mi NE 13.8 mph - N/A   Overcast
9:34 AM -0.4 °F -17.6 °F -7.6 °F 72% 30.34 in 10.0 mi NE 11.5 mph - N/A   Overcast
9:54 AM -0.4 °F -18.4 °F -7.6 °F 72% 30.36 in 10.0 mi NE 12.7 mph - N/A   Overcast
10:14 AM -0.4 °F -18.4 °F -7.6 °F 72% 30.36 in 10.0 mi NE 12.7 mph 17.3 mph N/A   Overcast
10:34 AM -0.4 °F -17.6 °F -7.6 °F 72% 30.36 in 10.0 mi NE 11.5 mph - N/A   Overcast
10:54 AM 1.4 °F -15.3 °F -7.6 °F 66% 30.36 in 10.0 mi NE 11.5 mph - N/A   Overcast
11:14 AM 1.4 °F -14.5 °F -7.6 °F 66% 30.36 in 10.0 mi NE 10.4 mph - N/A   Overcast
11:34 AM 1.4 °F -11.3 °F -7.6 °F 66% 30.36 in 10.0 mi NE 6.9 mph - N/A   Overcast
11:54 AM 1.4 °F -14.5 °F -7.6 °F 66% 30.36 in 10.0 mi NE 10.4 mph - N/A   Overcast
12:14 PM 1.4 °F -11.3 °F -7.6 °F 66% 30.35 in 10.0 mi NE 6.9 mph - N/A   Overcast
12:34 PM 3.2 °F -11.3 °F -9.4 °F 56% 30.35 in 10.0 mi NE 9.2 mph - N/A   Overcast
12:54 PM 3.2 °F -7.8 °F -7.6 °F 61% 30.34 in 10.0 mi NNE 5.8 mph - N/A   Overcast
1:14 PM 3.2 °F -6.2 °F -7.6 °F 61% 30.34 in 10.0 mi NE 4.6 mph - N/A   Overcast
1:34 PM 1.4 °F -12.5 °F -9.4 °F 61% 30.33 in 10.0 mi NE 8.1 mph - N/A   Overcast
1:55 PM 3.2 °F -9.1 °F -9.4 °F 56% 30.33 in 10.0 mi NE 6.9 mph - N/A   Overcast
2:14 PM 3.2 °F -9.1 °F -7.6 °F 61% 30.33 in 10.0 mi NE 6.9 mph - N/A   Overcast
2:34 PM 3.2 °F -7.8 °F -7.6 °F 61% 30.33 in 10.0 mi ENE 5.8 mph - N/A   Overcast
2:54 PM 3.2 °F -7.8 °F -7.6 °F 61% 30.32 in 10.0 mi NE 5.8 mph - N/A   Overcast
3:14 PM 3.2 °F -7.8 °F -7.6 °F 61% 30.34 in 10.0 mi NNE 5.8 mph - N/A   Overcast
3:34 PM 3.2 °F -9.1 °F -7.6 °F 61% 30.35 in 10.0 mi North 6.9 mph - N/A   Scattered Clouds
3:55 PM 1.4 °F -9.9 °F -7.6 °F 66% 30.36 in 10.0 mi NNE 5.8 mph - N/A   Clear
4:14 PM 1.4 °F -8.3 °F -9.4 °F 61% 30.36 in 10.0 mi NNE 4.6 mph - N/A   Scattered Clouds
4:34 PM 1.4 °F -9.9 °F -9.4 °F 61% 30.36 in 10.0 mi NNE 5.8 mph - N/A   Overcast
4:55 PM 1.4 °F -11.3 °F -7.6 °F 66% 30.36 in 10.0 mi NNE 6.9 mph - N/A   Overcast
5:14 PM 1.4 °F -8.3 °F -7.6 °F 66% 30.37 in 10.0 mi NNE 4.6 mph - N/A   Overcast
5:34 PM 1.4 °F -9.9 °F -7.6 °F 66% 30.37 in 10.0 mi NNE 5.8 mph - N/A   Overcast
5:54 PM 1.4 °F -6.2 °F -7.6 °F 66% 30.37 in 10.0 mi NE 3.5 mph - N/A   Overcast
6:14 PM 1.4 °F -8.3 °F -7.6 °F 66% 30.37 in 10.0 mi NNE 4.6 mph - N/A   Overcast
6:34 PM 1.4 °F -6.2 °F -7.6 °F 66% 30.38 in 10.0 mi North 3.5 mph - N/A   Overcast
6:54 PM 1.4 °F -6.2 °F -7.6 °F 66% 30.38 in 10.0 mi NNE 3.5 mph - N/A   Overcast
7:14 PM 1.4 °F - -7.6 °F 66% 30.38 in 10.0 mi Calm Calm - N/A   Overcast
7:34 PM 1.4 °F -8.3 °F -7.6 °F 66% 30.38 in 10.0 mi NNE 4.6 mph - N/A   Overcast
7:54 PM 1.4 °F -9.9 °F -7.6 °F 66% 30.38 in 10.0 mi NNE 5.8 mph - N/A   Overcast
8:14 PM 1.4 °F -8.3 °F -7.6 °F 66% 30.38 in 10.0 mi NNE 4.6 mph - N/A   Overcast
8:34 PM 1.4 °F -8.3 °F -7.6 °F 66% 30.38 in 10.0 mi NNE 4.6 mph - N/A   Overcast
8:54 PM 1.4 °F -8.3 °F -7.6 °F 66% 30.38 in 10.0 mi North 4.6 mph - N/A   Overcast
9:14 PM 1.4 °F -8.3 °F -7.6 °F 66% 30.37 in 10.0 mi NNE 4.6 mph - N/A   Overcast
9:34 PM 1.4 °F -6.2 °F -5.8 °F 72% 30.37 in 7.0 mi NNE 3.5 mph - N/A   Overcast
9:54 PM 1.4 °F - -5.8 °F 72% 30.38 in 7.0 mi Calm Calm - N/A   Overcast
10:14 PM 1.4 °F - -5.8 °F 72% 30.38 in 10.0 mi Calm Calm - N/A   Overcast
10:34 PM 1.4 °F -6.2 °F -5.8 °F 72% 30.38 in 10.0 mi North 3.5 mph - N/A   Overcast
10:55 PM -0.4 °F -8.3 °F -7.6 °F 72% 30.38 in 10.0 mi NE 3.5 mph - N/A   Scattered Clouds
11:14 PM -2.2 °F - -7.6 °F 78% 30.37 in 10.0 mi Calm Calm - N/A   Clear
11:34 PM -4.0 °F - -9.4 °F 78% 30.37 in 10.0 mi Calm Calm - N/A   Clear
11:54 PM -5.8 °F - -9.4 °F 84% 30.37 in 10.0 mi Calm Calm - N/A   Clear